GW1980 Weather Reports


time (UTC)temp
C
wind
direction
speed
KPH
gust
KPH
rain 1hr
cm
rain 24hr
cm
rain mn
cm
humidity
%
barometer
mb
20260906223002 37 148 6.4 12.9 0.00 0.00 0.00 37 1010.7
20260906221459 37 94 6.4 11.3 0.00 0.00 0.00 37 1010.9
20260906220004 38 106 8.0 19.3 0.00 0.00 0.00 37 1011.0
20260906214459 38 158 8.0 16.1 0.00 0.00 0.00 36 1011.2
20260906213002 37 136 6.4 14.5 0.00 0.00 0.00 36 1011.3
20260906210005 37 103 8.0 16.1 0.00 0.00 0.00 35 1011.6
20260906204459 37 91 8.0 14.5 0.00 0.00 0.00 38 1011.8
20260906203002 37 108 9.7 19.3 0.00 0.00 0.00 38 1011.9
20260906201459 37 180 6.4 17.7 0.00 0.00 0.00 37 1012.1
20260906200004 37 84 8.0 17.7 0.00 0.00 0.00 39 1012.2
20260906194459 37 195 8.0 16.1 0.00 0.00 0.00 39 1012.4
20260906193001 37 145 8.0 22.5 0.00 0.00 0.00 38 1012.6
20260906190005 36 127 9.7 17.7 0.00 0.00 0.00 41 1012.9
20260906184459 35 201 6.4 16.1 0.00 0.00 0.00 43 1013.1
20260906183001 37 72 4.8 12.9 0.00 0.00 0.00 39 1013.3
20260906181459 36 187 6.4 17.7 0.00 0.00 0.00 42 1013.5
20260906180004 36 132 4.8 12.9 0.00 0.00 0.00 44 1013.7
20260906174459 35 83 9.7 17.7 0.00 0.00 0.00 46 1013.9
20260906171459 35 162 9.7 19.3 0.00 0.00 0.00 48 1014.5
20260906170005 34 140 8.0 16.1 0.00 0.00 0.00 48 1014.7
20260906164459 34 345 4.8 9.7 0.00 0.00 0.00 51 1014.9
20260906163001 34 177 8.0 16.1 0.00 0.00 0.00 50 1015.0
20260906161459 34 200 1.6 6.4 0.00 0.00 0.00 52 1014.9
20260906160004 33 295 3.2 9.7 0.00 0.00 0.00 55 1014.8
20260906153002 32 235 0.0 4.8 0.00 0.00 0.00 59 1014.7
20260906150005 31 150 1.6 8.0 0.00 0.00 0.00 64 1014.6
20260906144458 31 181 3.2 8.0 0.00 0.00 0.00 64 1014.8
20260906143002 30 180 3.2 8.0 0.00 0.00 0.00 68 1014.9
20260906141459 28 187 1.6 6.4 0.00 0.00 0.00 71 1014.7
20260906140004 28 125 1.6 8.0 0.00 0.00 0.00 73 1014.6
20260906134459 27 180 3.2 6.4 0.00 0.00 0.00 76 1014.7
20260906133002 27 148 3.2 6.4 0.00 0.00 0.00 77 1014.6
20260906130004 25 102 3.2 4.8 0.00 0.00 0.00 82 1014.4
20260906124459 25 101 3.2 6.4 0.00 0.00 0.00 84 1014.1
20260906123002 24 103 1.6 4.8 0.00 0.00 0.00 85 1014.1
20260906121459 24 106 1.6 3.2 0.00 0.00 0.00 84 1014.0
20260906120004 24 135 3.2 6.4 0.00 0.00 0.00 84 1013.7
20260906114458 24 148 1.6 4.8 0.00 0.00 0.00 83 1013.6
20260906113001 24 103 1.6 4.8 0.00 0.00 0.00 83 1013.6
20260906111459 25 129 0.0 3.2 0.00 0.00 0.00 82 1013.5
20260906110003 25 132 1.6 3.2 0.00 0.00 0.00 82 1013.3
20260906104459 25 124 0.0 1.6 0.00 0.00 0.00 81 1013.1
20260906103001 25 119 1.6 3.2 0.00 0.00 0.00 81 1013.2
20260906101459 25 105 0.0 1.6 0.00 0.00 0.00 81 1013.0
20260906100004 25 105 0.0 1.6 0.00 0.00 0.00 80 1013.0
20260906094459 25 104 0.0 3.2 0.00 0.00 0.00 79 1012.8
20260906093002 25 155 0.0 1.6 0.00 0.00 0.00 79 1012.8
20260906090004 26 150 1.6 4.8 0.00 0.00 0.00 77 1012.4
20260906084459 26 150 0.0 0.0 0.00 0.00 0.00 76 1012.5
20260906083001 26 153 3.2 4.8 0.00 0.00 0.00 75 1012.6
20260906081459 26 150 3.2 6.4 0.00 0.00 0.00 75 1012.8
20260906080004 27 139 0.0 3.2 0.00 0.00 0.00 74 1012.9
20260906074458 27 153 1.6 4.8 0.00 0.00 0.00 73 1012.8
20260906071458 27 186 1.6 6.4 0.00 0.00 0.00 72 1013.0
20260906070004 28 186 4.8 9.7 0.00 0.00 0.00 71 1013.1
20260906064458 28 186 3.2 6.4 0.00 0.00 0.00 70 1013.3
20260906063001 28 181 4.8 9.7 0.00 0.00 0.00 71 1013.3
20260906060006 28 197 0.0 4.8 0.00 0.00 0.00 72 1013.4
20260906054500 28 166 1.6 6.4 0.00 0.00 0.00 71 1013.4
20260906053002 28 127 4.8 8.0 0.00 0.00 0.00 70 1013.5
20260906051500 28 158 3.2 8.0 0.00 0.00 0.00 69 1013.1
20260906050007 29 172 3.2 8.0 0.00 0.00 0.00 68 1013.2
20260906044500 29 172 1.6 8.0 0.00 0.00 0.00 67 1013.2
20260906043003 29 149 3.2 6.4 0.00 0.00 0.00 66 1013.2
20260906041459 30 136 4.8 9.7 0.00 0.00 0.00 64 1013.0
20260906040005 30 155 8.0 14.5 0.00 0.00 0.00 63 1013.0
20260906031459 31 135 6.4 12.9 0.00 0.00 0.00 56 1013.2
20260906024500 31 149 4.8 9.7 0.00 0.00 0.00 54 1012.7
20260906023002 32 144 8.0 16.1 0.00 0.00 0.00 52 1012.4
20260906021459 32 165 8.0 20.9 0.00 0.00 0.00 52 1012.1
20260906020007 32 174 9.7 17.7 0.00 0.00 0.00 51 1012.1
20260906014500 32 195 8.0 17.7 0.00 0.00 0.00 50 1011.7
20260906010005 35 162 3.2 8.0 0.00 0.00 0.00 41 1011.0
20260906004459 35 164 4.8 8.0 0.00 0.00 0.00 40 1011.0
20260906003002 36 141 6.4 11.3 0.00 0.00 0.00 38 1011.0
20260906000004 36 152 3.2 8.0 0.00 0.00 0.00 37 1010.8
20260905234500 36 184 6.4 11.3 0.00 0.00 0.00 36 1010.7
20260905233003 36 94 6.4 14.5 0.00 0.00 0.00 36 1010.8
20260905231459 37 135 8.0 16.1 0.00 0.00 0.00 35 1010.7
20260905230006 37 169 3.2 9.7 0.00 0.00 0.00 36 1010.7
20260905224459 37 97 6.4 11.3 0.00 0.00 0.00 35 1010.7